Skip Page Navigation
NASA JPL Caltech
NASA Logo - Jet Propulsion Laboratory + View the NASA Portal
+ Center for Near-Earth Object Studies
JPL Home Earth Solar System Stars & Galaxies Technology
JPL Solar System Dynamics
BODIES ORBITS EPHEMERIDES TOOLS PHYSICAL DATA DISCOVERY FAQ SITE MAP
IMPORTANT: The SSD Announcement email list is now available. Major changes are coming in the near future, including possible hostname and/or URL changes. To be notified of such changes, subscribe to this email list.

Please visit this page for more details.


JPL Small-Body Database Browser
Search: [ help ]  
447613 (2006 UQ141)
Classification: Main-belt Asteroid          SPK-ID: 2447613
Ephemeris | Orbit Diagram | Orbital Elements | Mission Design | Physical Parameters | Discovery Circumstances ]

[ show orbit diagram ]
Orbital Elements at Epoch 2458600.5 (2019-Apr-27.0) TDB
Reference: JPL 13 (heliocentric ecliptic J2000)
 Element Value Uncertainty (1-sigma)   Units 
e .1720066354175264 6.2712e-08  
a 2.71747891524124 5.7894e-08 au
q 2.250054510212525 1.7064e-07 au
i 23.97060232614673 1.7724e-05 deg
node 232.8661098375989 1.8452e-05 deg
peri 102.0428959844984 0.00010715 deg
M 337.5506693978156 9.7704e-05 deg
tp 2458702.534865521213
(2019-Aug-07.03486552)
0.00044606 TDB
period 1636.242622934262
4.48
5.2289e-05
1.432e-07
d
yr
n .2200162707865504 7.031e-09 deg/d
Q 3.184903320269955 6.7852e-08 au
  Orbit Determination Parameters
   # obs. used (total)      76  
   data-arc span      3866 days (10.58 yr)  
   first obs. used      2005-06-13  
   last obs. used      2016-01-13  
   planetary ephem.      DE431  
   SB-pert. ephem.      SB431-N16  
   condition code      0  
   norm. resid. RMS      .45666  
   source      ORB  
   producer      Otto Matic  
   solution date      2017-Apr-09 11:37:45  

Additional Information
 Earth MOID = 1.37128 au 
 Jupiter MOID = 2.40786 au 
 T_jup = 3.216 
[ show covariance matrix ]

Ephemeris | Orbit Diagram | Orbital Elements | Mission Design | Physical Parameters | Discovery Circumstances ]

Physical Parameter Table
Parameter Symbol Value Units Sigma Reference Notes
absolute magnitude H 17.0   n/a MPO361040  

447613 (2006 UQ141)          Discovered 2006-Oct-19 by Spacewatch at Kitt Peak
Reference: Last Updated: 2015-10-28
Ephemeris | Orbit Diagram | Orbital Elements | Mission Design | Physical Parameters | Discovery Circumstances ]
ABOUT SSD CREDITS/AWARDS PRIVACY/COPYRIGHT GLOSSARY LINKS
FirstGov
(server date/time)  
NASA Home Page
Site Manager:   Ryan S. Park
Webmaster  Alan B. Chamberlin